User: anonymous   Login
Location: Chervonnoye
(48.6000°N, 34.4000°E)
Time: 03:58:51
(UTC+00:00)
Language:

EO-79 - Orbit

View from above orbital plane
View from above orbital plane
View from above satellite
View from above satellite

Ground track
Ground track

The orbit data is extracted from the following two-line orbital elements,

1 40025U 14033R   21339.38189959  .00000789  00000-0  88433-4 0  9996
2 40025  97.9449 270.6085 0011952 342.9896  17.0919 14.89677667404862
Epoch (UTC): 05 December 2021 09:09:56
Eccentricity: 0.0011952
inclination: 97.9449°
perigee height: 590 km
apogee height: 607 km
right ascension of ascending node: 270.6085°
argument of perigee: 342.9896°
revolutions per day: 14.89677667
mean anomaly at epoch: 17.0919°
orbit number at epoch: 40486

The dashed part of the orbit path shows where the satellite is in the earth's shadow,  

DLR